[[{"header":{"parameterUnit":"m.s-1","parameterCategory":1,"la1":30.2991,"la2":30.254,"lo1":-89.0895,"lo2":-89.0444,"dy":0.0017,"dx":0.0017,"nx":28,"ny":28,"refTime":"2026-02-25T09:00:00:Z","depth":0,"parameterNumber":2,"parameterNumberName":"U-component_of_WINDS"},"data":[0,0,0,0,0,0,0,0,0,0,0,0,0,0,0,0,0,0,0,0,0,0,0,0,0,0,0,0,0,0,0,0,0,0,0,0,0,0,0,0,0,0,0,0,0,0,0,0,0,0,0,0,0,0,0,0,0,0,2.228,2.228,0,2.2307,2.2307,2.2308,2.2273,2.2272,2.227,2.2269,2.2299,2.2301,2.2303,0,0,0,0,0,0,0,0,0,0,0,0,0,2.2199,2.22,2.228,2.228,2.228,2.2307,2.2307,2.2308,2.2273,2.2272,2.227,2.2269,2.2299,2.2301,2.2304,0,0,0,0,0,0,0,0,0,0,0,0,0,2.2231,2.2201,2.2279,2.2266,2.2265,2.2307,2.2307,2.2308,2.2274,2.2272,2.227,2.2268,2.2298,2.2301,2.2304,2.2361,0,0,2.2313,2.2314,0,0,0,0,0,0,0,0,2.2229,2.2234,2.2268,2.2267,2.2266,2.2285,2.229,2.2326,2.2274,2.227,2.2269,2.2267,2.2296,2.2299,2.2309,2.2362,2.2363,2.2313,2.2315,2.2316,2.2317,0,0,0,0,0,0,0,2.2227,2.2232,2.229,2.2268,2.2267,2.2259,2.2262,2.2297,2.2294,2.2271,2.2268,2.2272,2.2295,2.2306,2.2309,2.2364,2.2313,2.2316,2.2318,2.2319,2.2465,2.2467,0,0,0,0,0,0,2.2226,2.2231,2.229,2.2291,2.2242,2.2262,2.2265,2.2281,2.2293,2.2293,2.2273,2.227,2.2302,2.2306,2.231,2.2377,2.2316,2.2319,2.2321,2.2463,2.2465,2.2468,0,0,0,0,0,0,2.2224,2.2232,2.2288,2.226,2.2267,2.2266,2.2284,2.2282,2.2292,2.2295,2.2295,2.2284,2.23,2.2306,2.2348,2.2378,2.232,2.2323,2.246,2.2464,2.2466,2.2512,0,0,0,0,0,0,2.2222,2.2231,2.2252,2.2261,2.2269,2.2326,2.2285,2.2284,2.2298,2.2293,2.2306,2.2306,2.2299,2.2344,2.2351,2.2381,2.2326,2.2458,2.2462,2.2465,2.2508,2.2516,2.2523,0,0,0,0,0,2.2219,2.2264,2.2254,2.2261,2.2295,2.2327,2.2332,2.2323,2.23,2.2322,2.2323,2.2305,2.2373,2.2348,2.2356,2.2387,2.2456,2.2461,2.2465,2.2504,2.2514,2.2523,0,0,0,0,0,0,2.226,2.2265,2.2253,2.2302,2.2315,2.2321,2.2348,2.2334,2.2353,2.2349,2.2337,2.2341,2.2386,2.2391,2.2363,2.2443,2.2411,2.2417,2.2438,2.2448,2.2455,2.2453,2.2328,0,0,0,0,0,2.2274,2.23,2.2303,2.2346,2.2353,2.235,2.2364,2.2355,2.2368,2.2373,2.2378,2.2391,2.2416,2.2432,2.2454,2.2508,2.251,2.2533,2.2541,2.2548,2.2554,2.2582,2.2593,2.2483,2.2483,2.2483,0,0,2.2305,2.2311,2.2328,2.2355,2.2363,2.239,2.2354,2.2384,2.2404,2.2378,2.2418,2.2422,2.2436,2.2484,2.2506,2.249,2.2584,2.2554,2.2559,2.2561,2.2588,2.2599,2.2608,2.2486,2.2486,2.2485,0,0,2.2374,2.2381,2.2418,2.2427,2.244,2.2437,2.2446,2.2455,2.2457,2.2496,2.2477,2.2501,2.2543,2.2554,2.2565,2.2638,2.2622,2.2646,2.2687,2.2715,2.2724,2.2731,2.2758,2.2767,2.2652,2.2652,2.2652,0,2.241,2.245,2.2438,2.247,2.2482,2.2459,2.2496,2.2505,2.2526,2.2535,2.2517,2.2569,2.2577,2.2627,2.2645,2.2655,2.2665,2.2644,2.2723,2.2731,2.2738,2.2763,2.2773,2.2655,2.2654,2.2654,2.2654,0,2.2494,2.2521,2.2549,2.2568,2.2584,2.2618,2.2613,2.263,2.2621,2.262,2.2661,2.267,2.2694,2.2705,2.2697,2.2755,2.2744,2.2725,2.2693,2.2751,2.2774,2.2784,2.2658,2.2657,2.2657,2.2656,0,0,2.2589,2.2601,2.2612,2.262,2.2633,2.2654,2.2688,2.271,2.2725,2.274,2.2768,2.2804,2.2786,2.2799,2.2791,2.2816,2.2874,2.2794,2.2794,2.2808,2.2938,2.2953,2.2964,2.2863,2.2865,2.2866,2.2937,0,2.2658,2.2715,2.2706,2.2761,2.2786,2.2765,2.2794,2.2805,2.2805,2.2828,2.2828,2.2854,2.2828,2.2836,2.2859,2.2862,2.29,2.2856,2.2889,2.2891,2.2886,2.2976,2.2991,2.3057,2.2946,2.2947,2.2949,0,2.2746,2.2763,2.2821,2.283,2.284,2.2866,2.2886,2.2907,2.292,2.2919,2.2933,2.2921,2.2954,2.2921,2.2968,2.2939,2.2952,2.2955,2.2957,2.296,2.2923,2.2981,2.3078,2.3088,2.2963,2.2962,2.2961,0,2.281,2.2848,2.2887,2.2895,2.2906,2.2925,2.2931,2.2941,2.2955,2.2973,2.2982,2.3004,2.3016,2.3033,2.3027,2.3004,2.3075,2.3042,2.3075,2.3076,2.3091,2.3091,2.3192,2.31,2.31,2.31,2.3099,0,2.2888,2.2924,2.2916,2.294,2.298,2.2969,2.3009,2.3012,2.3022,2.3047,2.3029,2.3053,2.3044,2.3067,2.3063,2.3103,2.3108,2.3108,2.3107,2.311,2.311,2.3118,2.3114,2.3102,2.3102,2.3101,2.3101,0,2.2966,2.2961,2.3003,2.301,2.3012,2.3042,2.3048,2.3071,2.307,2.3101,2.3108,2.3107,2.3134,2.313,2.316,2.3157,2.3206,2.3199,2.3201,2.32,2.3234,2.3231,2.3344,2.3359,2.3257,2.3258,2.3259,0,2.3016,2.3043,2.3053,2.3068,2.3074,2.3099,2.3113,2.3104,2.312,2.3136,2.3157,2.3182,2.3201,2.3245,2.3247,2.327,2.3264,2.3302,2.3267,2.3269,2.3264,2.3263,2.3265,2.3309,2.331,2.3311,2.3312,0,2.3105,2.3101,2.3122,2.3142,2.316,2.3175,2.3189,2.3203,2.3195,2.3214,2.324,2.3255,2.3285,2.3311,2.3332,2.3338,2.3324,2.3323,2.3331,2.3335,2.3335,2.3335,2.322,2.332,2.3319,2.3319,2.3318,2.3318,2.317,2.3193,2.3203,2.3227,2.3237,2.325,2.3272,2.3274,2.3296,2.3319,2.3313,2.3343,2.3355,2.3382,2.3391,2.3415,2.3401,2.3414,2.3417,2.342,2.3424,2.3331,2.3419,2.3418,2.3418,2.3418,2.3418,0,2.3258,2.3263,2.3285,2.3305,2.3324,2.3309,2.3323,2.334,2.3367,2.3379,2.3399,2.3429,2.3454,2.3458,2.3481,2.35,2.3494,2.3506,2.3505,2.3506,2.3436,2.3426,2.3511,2.3511,2.351,2.351,2.351,2.351,2.3306,2.3344,2.3342,2.3385,2.339,2.3419,2.3429,2.3442,2.3451,2.3486,2.3506,2.3509,2.3518,2.3542,2.3563,2.3564,2.3574,2.3589,2.3587,2.3521,2.3511,2.3503,2.3493,2.3591,2.3591,2.3655,2.3656,2.3656]},{"header":{"parameterUnit":"m.s-1","parameterCategory":1,"la1":30.2991,"la2":30.254,"lo1":-89.0895,"lo2":-89.0444,"dy":0.0017,"dx":0.0017,"nx":28,"ny":28,"refTime":"2026-02-25T09:00:00:Z","depth":0,"parameterNumber":3,"parameterNumberName":"V-component_of_WINDS"},"data":[0,0,0,0,0,0,0,0,0,0,0,0,0,0,0,0,0,0,0,0,0,0,0,0,0,0,0,0,0,0,0,0,0,0,0,0,0,0,0,0,0,0,0,0,0,0,0,0,0,0,0,0,0,0,0,0,0,0,4.3092,4.3093,0,4.3194,4.3195,4.3197,4.3195,4.3194,4.3193,4.3191,4.3297,4.3301,4.3305,0,0,0,0,0,0,0,0,0,0,0,0,0,4.2899,4.2903,4.3092,4.3094,4.3095,4.3194,4.3195,4.3197,4.3196,4.3194,4.3192,4.3191,4.3296,4.3301,4.3306,0,0,0,0,0,0,0,0,0,0,0,0,0,4.299,4.2904,4.3092,4.3106,4.3108,4.3194,4.3196,4.3197,4.3196,4.3194,4.3192,4.319,4.3294,4.33,4.3306,4.3385,0,0,4.3325,4.3328,0,0,0,0,0,0,0,0,4.2985,4.2997,4.3103,4.3105,4.3108,4.318,4.3166,4.326,4.3196,4.3163,4.3191,4.3189,4.326,4.3269,4.3292,4.339,4.3395,4.3326,4.3329,4.3332,4.3334,0,0,0,0,0,0,0,4.2979,4.2993,4.3133,4.3104,4.3108,4.3108,4.3119,4.3184,4.3222,4.3165,4.3166,4.3178,4.3261,4.3287,4.3295,4.3396,4.3325,4.3331,4.3335,4.3337,4.3565,4.3567,0,0,0,0,0,0,4.2969,4.2988,4.3129,4.3136,4.304,4.3113,4.3125,4.3159,4.3221,4.3228,4.3179,4.3177,4.3277,4.3288,4.3299,4.3396,4.3332,4.3338,4.3341,4.3563,4.3566,4.3568,0,0,0,0,0,0,4.2965,4.2982,4.3125,4.3062,4.308,4.3119,4.3157,4.3162,4.3188,4.3231,4.3238,4.3198,4.3276,4.329,4.3364,4.34,4.334,4.3346,4.356,4.3564,4.3567,4.3591,0,0,0,0,0,0,4.296,4.298,4.301,4.3063,4.3084,4.3188,4.3159,4.3165,4.3198,4.3196,4.3251,4.3258,4.3275,4.3355,4.337,4.3407,4.3351,4.3557,4.3562,4.3566,4.3587,4.3595,4.3602,0,0,0,0,0,4.2953,4.3013,4.3012,4.3029,4.3121,4.319,4.3202,4.3221,4.3201,4.3232,4.326,4.3256,4.3393,4.3362,4.3379,4.3419,4.3555,4.356,4.3565,4.3584,4.3594,4.3602,0,0,0,0,0,0,4.2964,4.302,4.3019,4.3098,4.3139,4.319,4.3229,4.323,4.3278,4.3275,4.3295,4.3308,4.3382,4.3408,4.3372,4.3499,4.3472,4.3481,4.348,4.3489,4.3496,4.3489,4.3356,0,0,0,0,0,4.2976,4.3026,4.3073,4.3138,4.3159,4.319,4.3221,4.3231,4.3275,4.3293,4.3327,4.337,4.3423,4.3457,4.3508,4.3591,4.3603,4.3626,4.3634,4.3639,4.3647,4.3694,4.3706,4.3586,4.3586,4.3586,0,0,4.3001,4.3037,4.3068,4.3141,4.3174,4.3227,4.3205,4.3262,4.3302,4.3302,4.3374,4.34,4.345,4.3529,4.3565,4.3553,4.3683,4.3646,4.365,4.3655,4.3701,4.3712,4.3722,4.3589,4.3589,4.3588,0,0,4.3073,4.3105,4.3164,4.3198,4.3248,4.3269,4.3283,4.3334,4.3351,4.3424,4.3425,4.3473,4.3563,4.3599,4.3629,4.3716,4.3715,4.3732,4.377,4.3816,4.3825,4.3834,4.3866,4.3877,4.374,4.374,4.374,0,4.3098,4.3177,4.3194,4.3251,4.3284,4.3286,4.3346,4.3378,4.3443,4.3466,4.3451,4.3565,4.3599,4.3687,4.3708,4.3732,4.3749,4.3726,4.3822,4.3831,4.3839,4.387,4.3882,4.3741,4.3741,4.3741,4.3741,0,4.3206,4.326,4.3302,4.3364,4.3401,4.346,4.3487,4.3522,4.353,4.3552,4.3627,4.3667,4.3727,4.3748,4.3756,4.3838,4.3829,4.3818,4.379,4.3852,4.3882,4.3894,4.3744,4.3743,4.3743,4.3742,0,0,4.3289,4.336,4.3375,4.3404,4.346,4.3503,4.3562,4.362,4.3651,4.3696,4.3747,4.3823,4.3814,4.3848,4.386,4.3899,4.3967,4.3884,4.3885,4.3899,4.4062,4.4071,4.4084,4.3967,4.3969,4.3971,4.4058,0,4.3368,4.3472,4.349,4.3581,4.3633,4.3636,4.3688,4.3728,4.3751,4.3799,4.3825,4.3879,4.3861,4.3882,4.3922,4.3951,4.4001,4.3944,4.4015,4.4018,4.4004,4.41,4.4109,4.419,4.407,4.4072,4.4073,0,4.3475,4.3522,4.3619,4.3669,4.3691,4.3737,4.3793,4.3838,4.3885,4.3899,4.3937,4.3944,4.4007,4.3976,4.4063,4.4024,4.4054,4.4073,4.4077,4.4085,4.405,4.4112,4.4216,4.4228,4.4091,4.409,4.4088,0,4.3527,4.3615,4.3685,4.3709,4.3769,4.3802,4.3828,4.3873,4.3907,4.3955,4.3978,4.4033,4.4064,4.4107,4.4129,4.4104,4.4215,4.4186,4.423,4.4229,4.4254,4.4252,4.4365,4.4271,4.4271,4.427,4.427,0,4.3615,4.3674,4.371,4.3753,4.382,4.3839,4.3906,4.3932,4.3971,4.402,4.4026,4.4072,4.4098,4.4148,4.4166,4.4236,4.4249,4.4263,4.4268,4.4264,4.4262,4.4285,4.428,4.4274,4.4273,4.4272,4.4272,0,4.3686,4.3711,4.3788,4.3838,4.3852,4.39,4.3943,4.3986,4.4008,4.407,4.4086,4.4122,4.4181,4.4208,4.4281,4.4293,4.4373,4.4373,4.4358,4.436,4.4402,4.4399,4.4535,4.4555,4.4446,4.4447,4.4448,0,4.374,4.3786,4.3842,4.3875,4.3902,4.3955,4.399,4.4011,4.4048,4.4105,4.4141,4.42,4.4249,4.4344,4.4377,4.4433,4.4435,4.4479,4.4443,4.4438,4.4437,4.4435,4.444,4.4486,4.4487,4.4488,4.4488,0,4.3836,4.3846,4.3896,4.3951,4.3992,4.4037,4.408,4.4107,4.4135,4.4176,4.4237,4.4274,4.4349,4.4409,4.4467,4.4495,4.4497,4.4499,4.4512,4.451,4.45,4.4507,4.4377,4.4496,4.4495,4.4495,4.4494,4.4494,4.3901,4.3943,4.3988,4.4044,4.4079,4.4119,4.4162,4.419,4.4241,4.4303,4.4313,4.4378,4.4425,4.4503,4.4534,4.4586,4.4575,4.4594,4.4599,4.4604,4.4607,4.449,4.4596,4.4596,4.4596,4.4596,4.4595,0,4.3998,4.4028,4.4078,4.4139,4.4183,4.418,4.4228,4.4266,4.4323,4.4366,4.4414,4.4484,4.4542,4.458,4.4638,4.4673,4.4675,4.4687,4.4686,4.4693,4.4613,4.4596,4.4685,4.4685,4.4685,4.4685,4.4684,4.4684,4.4054,4.4124,4.414,4.4228,4.4258,4.4321,4.4349,4.4387,4.4422,4.45,4.4548,4.4572,4.4613,4.4675,4.4728,4.4738,4.476,4.4773,4.4783,4.4707,4.4698,4.4689,4.4674,4.4777,4.4778,4.4859,4.486,4.486]}]]